Location: Shepherdstown, WV
(39.4326°N, 77.8042°W)
Time: 18:40:35
(UTC-04:00)

X-37B - Pass Details

Date: 27 June 2021
Orbit: 383 x 392 km, 45.0° (Epoch: 01 July)

Event Time Altitude Azimuth Distance (km) Brightness Sun altitude
Rises 00:34:43 0° 295° (WNW) 2,256 4.9 -26.6°
Reaches altitude 10° 00:36:51 10° 303° (WNW) 1,402 3.9 -26.6°
Enters shadow 00:37:14 13° 306° (NW) 1,255 3.7 -26.7°
